Change the Weather History Date:

Monday, November 14, 2011

  Actual Average Record
Temperature  
Mean Temperature 56 °F 36 °F  
Max Temperature 65 °F 45 °F 65 °F (1989)
Min Temperature 46 °F 28 °F 8 °F (1986)
Degree Days  
Heating Degree Days 9 29  
Month to date heating degree days 304 373  
Since 1 July heating degree days 990 1329  
Cooling Degree Days 0 0  
Month to date cooling degree days 0  
Year to date cooling degree days 264  
Growing Degree Days 5 (Base 50)    
Moisture  
Dew Point 44 °F    
Average Humidity 72    
Maximum Humidity 96    
Minimum Humidity 48    
Precipitation  
Precipitation 0.04 in 0.11 in 0.93 in (1975)
Month to date precipitation 0.15 1.49  
Year to date precipitation 49.64 32.85  
Sea Level Pressure  
Sea Level Pressure 29.74 in    
Wind  
Wind Speed 8 mph (South)    
Max Wind Speed 20 mph    
Max Gust Speed 30 mph    
Visibility 10 miles    
Events Rain    
T = Trace of Precipitation, MM = Missing Value Source: NWS Daily Summary

Daily Weather History Graph

Daily Weather History Graph

Search for Another Location

Airport or City:

Trip Planner

Search our weather history database for the weather conditions in past years. The results will help you decide how hot, cold, wet, or windy it might be!

Date:

Astronomy

Nov. 14, 2011 Rise Set
Actual Time 6:44 AM EST 4:24 PM EST
Civil Twilight 6:12 AM EST 4:55 PM EST
Nautical Twilight 5:37 AM EST 5:30 PM EST
Astronomical Twilight 5:03 AM EST 6:05 PM EST
Moon 7:26 PM EST (11/14) 10:03 AM EST (11/14)
Length of Visible Light 10h 43m
Length of Day
9h 40m
Waning Gibbous, 87% of the Moon is Illuminated
Nov 14
Waning Gibbous
Nov 18
Last Quarter
Nov 25
New
Dec 2
First Quarter
Dec 10
Full

Hourly Weather History & Observations

Time (EST) Temp. Dew Point Humidity Pressure Visibility Wind Dir Wind Speed Gust Speed Precip Events Conditions
12:51 AM 46.9 °F 37.0 °F 68% 29.85 in 10.0 mi South 3.5 mph - N/A   Overcast
1:51 AM 52.0 °F 36.0 °F 54% 29.83 in 10.0 mi Calm Calm - N/A   Overcast
2:51 AM 51.1 °F 37.0 °F 59% 29.81 in 10.0 mi South 10.4 mph - N/A   Mostly Cloudy
3:51 AM 50.0 °F 37.0 °F 61% 29.81 in 10.0 mi Calm Calm - N/A   Mostly Cloudy
4:51 AM 50.0 °F 37.0 °F 61% 29.81 in 10.0 mi SSW 6.9 mph - N/A   Mostly Cloudy
5:51 AM 48.9 °F 37.9 °F 66% 29.80 in 10.0 mi South 6.9 mph - N/A   Clear
6:51 AM 50.0 °F 37.9 °F 63% 29.80 in 10.0 mi South 4.6 mph - N/A   Mostly Cloudy
7:51 AM 50.0 °F 39.0 °F 66% 29.80 in 10.0 mi SSE 12.7 mph - N/A   Clear
8:51 AM 55.0 °F 39.9 °F 57% 29.78 in 10.0 mi SE 6.9 mph - N/A   Clear
9:51 AM 59.0 °F 41.0 °F 51% 29.77 in 10.0 mi SSE 12.7 mph - N/A   Clear
10:51 AM 64.0 °F 44.1 °F 48% 29.77 in 10.0 mi SW 15.0 mph 24.2 mph N/A   Partly Cloudy
11:51 AM 63.0 °F 43.0 °F 48% 29.76 in 10.0 mi SSW 15.0 mph 26.5 mph N/A   Clear
12:51 PM 62.1 °F 43.0 °F 50% 29.76 in 10.0 mi SSW 10.4 mph 20.7 mph N/A   Clear
1:51 PM 61.0 °F 43.0 °F 52% 29.75 in 10.0 mi SW 9.2 mph 16.1 mph N/A   Clear
2:51 PM 60.1 °F 43.0 °F 53% 29.73 in 10.0 mi South 9.2 mph - N/A   Mostly Cloudy
3:51 PM 61.0 °F 45.0 °F 56% 29.73 in 10.0 mi SW 6.9 mph - N/A   Clear
4:51 PM 59.0 °F 44.1 °F 58% 29.74 in 10.0 mi South 10.4 mph - N/A   Overcast
5:51 PM 57.0 °F 44.1 °F 62% 29.74 in 10.0 mi South 6.9 mph - N/A   Mostly Cloudy
6:51 PM 57.0 °F 45.0 °F 64% 29.72 in 10.0 mi South 9.2 mph - N/A   Mostly Cloudy
7:51 PM 55.9 °F 46.0 °F 69% 29.71 in 10.0 mi South 8.1 mph - N/A   Partly Cloudy
8:51 PM 55.4 °F 46.4 °F 72% 29.71 in 10.0 mi South 11.5 mph - N/A Rain Light Rain
9:05 PM 53.6 °F 46.4 °F 77% 29.71 in 10.0 mi SSE 12.7 mph - 0.00 in Rain Light Rain
9:37 PM 51.8 °F 48.2 °F 88% 29.70 in 8.0 mi SSE 10.4 mph - 0.02 in Rain Light Rain
9:51 PM 52.0 °F 48.0 °F 86% 29.70 in 9.0 mi SSE 11.5 mph - 0.04 in Rain Light Rain
10:51 PM 52.0 °F 50.0 °F 93% 29.66 in 10.0 mi South 9.2 mph - 0.00 in   Mostly Cloudy
10:58 PM 51.8 °F 50.0 °F 94% 29.65 in 10.0 mi South 10.4 mph - N/A   Overcast
11:11 PM 53.6 °F 50.0 °F 88% 29.65 in 10.0 mi South 10.4 mph - N/A   Overcast
11:33 PM 51.8 °F 50.0 °F 94% 29.61 in 10.0 mi SSE 11.5 mph - N/A   Mostly Cloudy
11:48 PM 53.6 °F 50.0 °F 88% 29.62 in 10.0 mi Calm Calm - N/A   Mostly Cloudy
11:51 PM 53.1 °F 51.1 °F 93% 29.61 in 10.0 mi Calm Calm - N/A   Mostly Cloudy